Time,TemperatureF,DewpointF,PressureIn,WindDirection,WindDirectionDegrees,WindSpeedMPH,WindSpeedGustMPH,Humidity,HourlyPrecipIn,Conditions,Clouds,dailyrainin,SolarRadiationWatts/m^2,SoftwareType,DateUTC
2013-02-08 12:00:00,42.0,20.0,-100.00,North,351,2.0,9.0,41,-99.99,,,-99.99,431.000000,,2013-02-08 19:00:00,
2013-02-08 12:52:00,42.0,20.0,-100.00,North,351,2.0,9.0,41,-99.99,,,-99.99,431.000000,,2013-02-08 19:52:00,
2013-02-08 13:00:00,41.0,16.0,-100.00,South,170,2.0,9.0,36,-99.99,,,0.00,509.799988,,2013-02-08 20:00:00,
2013-02-08 13:52:00,41.0,16.0,-100.00,South,170,2.0,9.0,36,-99.99,,,0.00,509.799988,,2013-02-08 20:52:00,
2013-02-08 14:00:00,37.0,18.0,-100.00,East,92,2.0,8.0,44,-99.99,,,0.00,274.399994,,2013-02-08 21:00:00,
2013-02-08 14:52:00,37.0,18.0,-100.00,East,92,2.0,8.0,44,-99.99,,,0.00,274.399994,,2013-02-08 21:52:00,
2013-02-08 15:00:00,35.0,20.0,-100.00,ENE,78,2.0,8.0,53,-99.99,,,-99.99,187.399994,,2013-02-08 22:00:00,
2013-02-08 15:52:00,35.0,20.0,-100.00,ENE,78,2.0,8.0,53,-99.99,,,-99.99,187.399994,,2013-02-08 22:52:00,
2013-02-08 16:00:00,34.0,21.0,-100.00,East,85,2.0,9.0,58,-99.99,,,-99.99,113.900002,,2013-02-08 23:00:00,
2013-02-08 16:52:00,34.0,21.0,-100.00,East,85,2.0,9.0,58,-99.99,,,-99.99,113.900002,,2013-02-08 23:52:00,
2013-02-08 17:00:00,33.0,23.0,-100.00,East,85,1.0,6.0,64,-99.99,,,0.00,48.200001,,2013-02-09 00:00:00,
2013-02-08 17:52:00,33.0,23.0,-100.00,East,85,1.0,6.0,64,-99.99,,,0.00,48.200001,,2013-02-09 00:52:00,
2013-02-08 18:00:00,32.0,24.0,-100.00,ESE,121,2.0,8.0,70,-99.99,,,0.00,7.600000,,2013-02-09 01:00:00,
2013-02-08 18:52:00,32.0,24.0,-100.00,ESE,121,2.0,8.0,70,-99.99,,,0.00,7.600000,,2013-02-09 01:52:00,
2013-02-08 19:00:00,32.0,24.0,-100.00,East,94,2.0,9.0,72,-99.99,,,0.00,0.000000,,2013-02-09 02:00:00,
2013-02-08 19:53:00,32.0,24.0,-100.00,East,94,2.0,9.0,72,-99.99,,,0.00,0.000000,,2013-02-09 02:53:00,
2013-02-08 20:00:00,31.0,24.0,-100.00,East,87,2.0,8.0,74,-99.99,,,0.00,0.000000,,2013-02-09 03:00:00,
2013-02-08 20:53:00,31.0,24.0,-100.00,East,87,2.0,8.0,74,-99.99,,,0.00,0.000000,,2013-02-09 03:53:00,
2013-02-08 21:00:00,30.0,24.0,-100.00,ENE,75,2.0,7.0,78,-99.99,,,0.00,0.000000,,2013-02-09 04:00:00,
2013-02-08 21:52:00,30.0,24.0,-100.00,ENE,75,2.0,7.0,78,-99.99,,,0.00,0.000000,,2013-02-09 04:52:00,
2013-02-08 22:00:00,30.0,24.0,-100.00,East,81,2.0,8.0,80,-99.99,,,0.00,0.000000,,2013-02-09 05:00:00,
2013-02-08 22:52:00,30.0,24.0,-100.00,East,81,2.0,8.0,80,-99.99,,,0.00,0.000000,,2013-02-09 05:52:00,
2013-02-08 23:00:00,30.0,25.0,-100.00,East,87,2.0,12.0,81,-99.99,,,-99.99,0.000000,,2013-02-09 06:00:00,
2013-02-08 23:52:00,30.0,25.0,-100.00,East,87,2.0,12.0,81,-99.99,,,-99.99,0.000000,,2013-02-09 06:52:00,